Flag for U.S.A. Weather past 2 weeks in New York, New York, U.S.A.

Now
52 °F

Clear.


Feels Like: 49 °F
Forecast: 43 / 61 °F
Wind: 8 mph from Northeast

Location: New York City - Central Park

Current Time: Apr 25, 2015 at 11:52:49 PM

Latest Report: Apr 25, 2015 at 10:51 PM


Visibility: 10 mi

Pressure: 29.69 "Hg

Humidity: 41%

Dew point: 29 °F

Location of New YorkLocation

Historic Weather in New York — Graph

°F

New York temperature yesterday

Maximum temperature yesterday: 51 °F (at 3:51 PM)
Minimum temperature yesterday: 39 °F (at 4:51 AM)
Average temperature yesterday: 43 °F

Past Weeks' High & Low Weather Summary

 TemperatureHumidityPressure
High79 °F (Apr 18, 3:51 PM)100% (Apr 20, 3:51 PM)30.48 "Hg (Apr 20, 3:51 PM)
Low38 °F (Apr 25, 4:51 AM)12% (Apr 15, 5:51 PM)29.53 "Hg (Apr 22, 2:51 PM)
Average55 °F46%30.00 "Hg
* Reported Apr 10 9:51 PM — Apr 25 9:51 PM, New York, Weather by CustomWeather, © 2015

Note: Actual official high and low records may vary slightly from our data, if they occured in-between our weather recording intervals... More about our weather records

Advertising

New York weather history for previous 24 hours

 ConditionsComfort  
Time TempWeatherWind HumidityBarometerVisibility
9:51 PM
Sat, Apr 25
51 °FClear.No wind52%29.70 "Hg10 mi
8:51 PM52 °FClear.No wind50%29.70 "Hg10 mi
7:51 PM57 °FSunny.No wind32%29.70 "Hg10 mi
6:51 PM59 °FSunny.6 mph22%29.68 "Hg10 mi
5:51 PM60 °FSunny.5 mph21%29.69 "Hg10 mi
4:51 PM60 °FSunny.6 mph21%29.70 "Hg10 mi
3:51 PM60 °FSunny.N/A23%29.72 "Hg10 mi
2:51 PM58 °FSunny.5 mph25%29.75 "Hg10 mi
1:51 PM56 °FSunny.8 mph26%29.79 "Hg10 mi
12:51 PM55 °FSunny.5 mph28%29.81 "Hg10 mi
11:51 AM51 °FSunny.3 mph32%29.85 "Hg10 mi
10:51 AM49 °FSunny.N/A35%29.86 "Hg10 mi
9:51 AM46 °FSunny.9 mph37%29.87 "Hg10 mi
8:51 AM43 °FSunny.5 mph43%29.88 "Hg10 mi
7:51 AM40 °FSunny.5 mph49%29.91 "Hg10 mi
6:51 AM38 °FClear.N/A53%29.91 "Hg10 mi
5:51 AM38 °FClear.8 mph53%29.91 "Hg10 mi
4:51 AM38 °FClear.9 mph53%29.91 "Hg10 mi
3:51 AM39 °FClear.8 mph48%29.90 "Hg10 mi
2:51 AM39 °FClear.6 mph46%29.90 "Hg10 mi
1:51 AM39 °FClear.8 mph46%29.91 "Hg10 mi
12:51 AM39 °FClear.5 mph46%29.93 "Hg10 mi
11:51 PM
Fri, Apr 24
40 °FClear.N/A45%29.93 "Hg10 mi
Weather by CustomWeather, © 2015

See weather overviewHow to use our weather pages